Time,TemperatureF,DewpointF,PressureIn,WindDirection,WindDirectionDegrees,WindSpeedMPH,WindSpeedGustMPH,Humidity,HourlyPrecipIn,Conditions,Clouds,dailyrainin,SoftwareType,DateUTC
2013-05-04 00:01:00,50.8,40.2,30.03,ESE,113,0.7,3.1,67,0.00,,,0.00,WUHU216HW,2013-05-04 04:01:00,
2013-05-04 00:06:00,50.6,40.1,30.03,West,270,0.2,1.8,67,0.00,,,0.00,WUHU216HW,2013-05-04 04:06:00,
2013-05-04 00:11:00,50.4,39.4,30.03,East,90,1.8,1.8,66,0.00,,,0.00,WUHU216HW,2013-05-04 04:11:00,
2013-05-04 00:16:00,50.0,39.9,30.03,SSE,158,0.4,2.7,68,0.00,,,0.00,WUHU216HW,2013-05-04 04:16:00,
2013-05-04 00:21:00,49.7,39.5,30.03,West,270,0.4,3.4,68,0.00,,,0.00,WUHU216HW,2013-05-04 04:21:00,
2013-05-04 00:26:00,49.7,39.5,30.03,NE,45,1.1,3.4,68,0.00,,,0.00,WUHU216HW,2013-05-04 04:26:00,
2013-05-04 00:31:00,49.5,39.3,30.04,ENE,68,0.7,2.5,68,0.00,,,0.00,WUHU216HW,2013-05-04 04:31:00,
2013-05-04 00:36:00,49.5,39.0,30.04,West,270,0.7,1.6,67,0.00,,,0.00,WUHU216HW,2013-05-04 04:36:00,
2013-05-04 00:41:00,49.3,38.8,30.03,South,180,1.3,1.6,67,0.00,,,0.00,WUHU216HW,2013-05-04 04:41:00,
2013-05-04 00:46:00,49.0,39.3,30.03,South,180,4.0,4.0,69,0.00,,,0.00,WUHU216HW,2013-05-04 04:46:00,
2013-05-04 00:51:00,48.8,38.6,30.02,ENE,68,1.3,4.0,68,0.00,,,0.00,WUHU216HW,2013-05-04 04:51:00,
2013-05-04 00:56:00,48.6,38.5,30.03,ENE,68,0.7,2.9,68,0.00,,,0.00,WUHU216HW,2013-05-04 04:56:00,
2013-05-04 01:01:00,48.6,38.5,30.02,SSW,203,0.9,3.4,68,0.00,,,0.00,WUHU216HW,2013-05-04 05:01:00,
2013-05-04 01:06:00,48.4,37.9,30.02,WNW,293,0.4,3.4,67,0.00,,,0.00,WUHU216HW,2013-05-04 05:06:00,
2013-05-04 01:11:00,48.2,38.2,30.02,East,90,1.6,3.4,68,0.00,,,0.00,WUHU216HW,2013-05-04 05:11:00,
2013-05-04 01:16:00,48.1,38.0,30.02,WSW,248,0.4,3.4,68,0.00,,,0.00,WUHU216HW,2013-05-04 05:16:00,
2013-05-04 01:21:00,47.9,37.5,30.02,ESE,113,0.4,2.5,67,0.00,,,0.00,WUHU216HW,2013-05-04 05:21:00,
2013-05-04 01:26:00,47.7,37.6,30.02,West,270,0.4,1.6,68,0.00,,,0.00,WUHU216HW,2013-05-04 05:26:00,
2013-05-04 01:31:00,47.5,37.1,30.02,ENE,68,0.7,1.6,67,0.00,,,0.00,WUHU216HW,2013-05-04 05:31:00,
2013-05-04 01:36:00,47.2,37.2,30.02,WNW,293,1.1,1.1,68,0.00,,,0.00,WUHU216HW,2013-05-04 05:36:00,
2013-05-04 01:41:00,47.0,37.0,30.02,WNW,293,0.0,1.1,68,0.00,,,0.00,WUHU216HW,2013-05-04 05:41:00,
2013-05-04 01:46:00,46.8,36.8,30.02,West,270,0.0,1.8,68,0.00,,,0.00,WUHU216HW,2013-05-04 05:46:00,
2013-05-04 01:51:00,46.6,36.6,30.02,WSW,248,0.0,1.8,68,0.00,,,0.00,WUHU216HW,2013-05-04 05:51:00,
2013-05-04 01:56:00,46.4,36.5,30.02,SW,225,0.0,1.6,68,0.00,,,0.00,WUHU216HW,2013-05-04 05:56:00,
2013-05-04 02:01:00,46.3,36.7,30.02,SW,225,0.0,1.1,69,0.00,,,0.00,WUHU216HW,2013-05-04 06:01:00,
2013-05-04 02:06:00,46.1,36.6,30.02,West,270,0.0,0.4,69,0.00,,,0.00,WUHU216HW,2013-05-04 06:06:00,
2013-05-04 02:11:00,45.9,36.4,30.02,ENE,68,0.9,1.8,69,0.00,,,0.00,WUHU216HW,2013-05-04 06:11:00,
2013-05-04 02:16:00,45.7,36.5,30.01,West,270,0.0,1.8,70,0.00,,,0.00,WUHU216HW,2013-05-04 06:16:00,
2013-05-04 02:21:00,45.5,36.7,30.00,SSW,203,1.3,1.8,71,0.00,,,0.00,WUHU216HW,2013-05-04 06:21:00,
2013-05-04 02:26:00,45.4,36.6,30.00,NW,315,0.2,2.2,71,0.00,,,0.00,WUHU216HW,2013-05-04 06:26:00,
2013-05-04 02:31:00,45.2,36.0,30.00,NW,315,0.7,2.2,70,0.00,,,0.00,WUHU216HW,2013-05-04 06:31:00,
2013-05-04 02:36:00,45.2,36.4,29.99,South,180,0.0,1.6,71,0.00,,,0.00,WUHU216HW,2013-05-04 06:36:00,
2013-05-04 02:41:00,45.0,36.2,30.00,North,0,1.1,1.8,71,0.00,,,0.00,WUHU216HW,2013-05-04 06:41:00,
2013-05-04 02:46:00,44.6,35.8,30.00,South,180,0.0,1.8,71,0.00,,,0.00,WUHU216HW,2013-05-04 06:46:00,
2013-05-04 02:51:00,44.5,35.7,30.00,NNE,23,0.0,1.1,71,0.00,,,0.00,WUHU216HW,2013-05-04 06:51:00,
2013-05-04 02:56:00,44.3,35.8,30.00,ESE,113,0.4,1.8,72,0.00,,,0.00,WUHU216HW,2013-05-04 06:56:00,
2013-05-04 03:01:00,44.1,35.6,30.00,SW,225,0.0,1.8,72,0.00,,,0.00,WUHU216HW,2013-05-04 07:01:00,
2013-05-04 03:06:00,43.9,35.5,30.00,ESE,113,0.0,1.1,72,0.00,,,0.00,WUHU216HW,2013-05-04 07:06:00,
2013-05-04 03:11:00,43.7,35.0,30.00,WSW,248,0.0,1.1,71,0.00,,,0.00,WUHU216HW,2013-05-04 07:11:00,
2013-05-04 03:16:00,43.6,34.8,30.00,NNE,23,0.0,1.1,71,0.00,,,0.00,WUHU216HW,2013-05-04 07:16:00,
2013-05-04 03:21:00,43.6,34.8,30.00,West,270,1.1,1.1,71,0.00,,,0.00,WUHU216HW,2013-05-04 07:21:00,
2013-05-04 03:26:00,43.6,34.8,30.00,South,180,0.2,1.1,71,0.00,,,0.00,WUHU216HW,2013-05-04 07:26:00,
2013-05-04 03:31:00,43.6,34.8,30.00,SW,225,0.4,1.8,71,0.00,,,0.00,WUHU216HW,2013-05-04 07:31:00,
2013-05-04 03:36:00,43.4,34.7,30.00,SW,225,1.1,1.8,71,0.00,,,0.00,WUHU216HW,2013-05-04 07:36:00,
2013-05-04 03:41:00,43.4,35.0,30.00,NW,315,0.7,2.5,72,0.00,,,0.00,WUHU216HW,2013-05-04 07:41:00,
2013-05-04 03:46:00,43.2,34.8,30.00,NW,315,1.1,2.5,72,0.00,,,0.00,WUHU216HW,2013-05-04 07:46:00,
2013-05-04 03:51:00,43.0,34.7,30.00,West,270,0.2,1.3,72,0.00,,,0.00,WUHU216HW,2013-05-04 07:51:00,
2013-05-04 03:56:00,42.8,34.5,29.99,West,270,0.0,1.3,72,0.00,,,0.00,WUHU216HW,2013-05-04 07:56:00,
2013-05-04 04:01:00,42.8,34.5,29.99,SW,225,0.4,0.9,72,0.00,,,0.00,WUHU216HW,2013-05-04 08:01:00,
2013-05-04 04:06:00,42.8,35.1,29.99,WNW,293,0.9,1.1,74,0.00,,,0.00,WUHU216HW,2013-05-04 08:06:00,
2013-05-04 04:11:00,42.5,34.5,29.99,WNW,293,0.0,1.1,73,0.00,,,0.00,WUHU216HW,2013-05-04 08:11:00,
2013-05-04 04:16:00,42.3,34.3,29.99,WNW,293,0.0,0.9,73,0.00,,,0.00,WUHU216HW,2013-05-04 08:16:00,
2013-05-04 04:21:00,42.1,33.8,29.99,WNW,293,0.0,0.0,72,0.00,,,0.00,WUHU216HW,2013-05-04 08:21:00,
2013-05-04 04:26:00,42.1,33.8,29.99,SSW,203,0.4,1.1,72,0.00,,,0.00,WUHU216HW,2013-05-04 08:26:00,
2013-05-04 04:31:00,41.9,33.9,29.99,WNW,293,0.4,1.1,73,0.00,,,0.00,WUHU216HW,2013-05-04 08:31:00,
2013-05-04 04:36:00,41.8,33.8,30.00,South,180,0.0,1.1,73,0.00,,,0.00,WUHU216HW,2013-05-04 08:36:00,
2013-05-04 04:41:00,41.6,33.8,30.00,NNE,23,0.0,1.1,74,0.00,,,0.00,WUHU216HW,2013-05-04 08:41:00,
2013-05-04 04:46:00,41.6,33.6,29.99,NW,315,0.4,0.9,73,0.00,,,0.00,WUHU216HW,2013-05-04 08:46:00,
2013-05-04 04:51:00,41.4,33.4,29.99,NW,315,0.0,0.9,73,0.00,,,0.00,WUHU216HW,2013-05-04 08:51:00,
2013-05-04 04:56:00,41.4,33.4,30.00,NW,315,0.0,0.4,73,0.00,,,0.00,WUHU216HW,2013-05-04 08:56:00,
2013-05-04 05:01:00,41.4,33.4,30.00,NW,315,0.4,0.9,73,0.00,,,0.00,WUHU216HW,2013-05-04 09:01:00,
2013-05-04 05:06:00,41.2,33.2,29.99,NW,315,0.0,0.9,73,0.00,,,0.00,WUHU216HW,2013-05-04 09:06:00,
2013-05-04 05:11:00,40.9,33.1,29.99,NW,315,0.0,0.4,74,0.00,,,0.00,WUHU216HW,2013-05-04 09:11:00,
2013-05-04 05:16:00,40.7,33.0,29.99,NW,315,0.0,0.4,74,0.00,,,0.00,WUHU216HW,2013-05-04 09:16:00,
2013-05-04 05:21:00,40.7,33.0,29.99,NW,315,0.0,0.0,74,0.00,,,0.00,WUHU216HW,2013-05-04 09:21:00,
2013-05-04 05:26:00,40.3,32.7,29.99,NW,315,0.0,0.0,74,0.00,,,0.00,WUHU216HW,2013-05-04 09:26:00,
2013-05-04 05:31:00,40.3,32.7,29.99,NW,315,0.0,0.0,74,0.00,,,0.00,WUHU216HW,2013-05-04 09:31:00,
2013-05-04 05:36:00,40.1,32.8,29.99,NW,315,0.2,0.7,75,0.00,,,0.00,WUHU216HW,2013-05-04 09:36:00,
2013-05-04 05:41:00,40.0,32.7,29.99,NW,315,1.1,1.1,75,0.00,,,0.00,WUHU216HW,2013-05-04 09:41:00,
2013-05-04 05:46:00,40.0,32.9,29.99,NW,315,0.0,1.3,76,0.00,,,0.00,WUHU216HW,2013-05-04 09:46:00,
2013-05-04 05:51:00,40.0,33.3,29.99,NW,315,1.6,1.6,77,0.00,,,0.00,WUHU216HW,2013-05-04 09:51:00,
2013-05-04 05:56:00,39.8,32.8,29.99,NW,315,0.0,1.6,76,0.00,,,0.00,WUHU216HW,2013-05-04 09:56:00,
2013-05-04 06:01:00,39.6,32.9,29.99,NW,315,0.4,1.6,77,0.00,,,0.00,WUHU216HW,2013-05-04 10:01:00,
2013-05-04 06:06:00,39.6,32.9,29.99,NW,315,0.0,1.1,77,0.00,,,0.00,WUHU216HW,2013-05-04 10:06:00,
2013-05-04 06:11:00,39.6,32.9,30.00,NW,315,0.0,0.4,77,0.00,,,0.00,WUHU216HW,2013-05-04 10:11:00,
2013-05-04 06:16:00,39.6,32.7,30.00,NW,315,0.0,0.0,76,0.00,,,0.00,WUHU216HW,2013-05-04 10:16:00,
2013-05-04 06:21:00,39.8,32.8,30.00,NW,315,0.4,1.6,76,0.00,,,0.00,WUHU216HW,2013-05-04 10:21:00,
2013-05-04 06:26:00,40.0,32.9,30.00,NW,315,0.0,1.6,76,0.00,,,0.00,WUHU216HW,2013-05-04 10:26:00,
2013-05-04 06:31:00,40.0,32.9,30.00,NW,315,0.0,0.7,76,0.00,,,0.00,WUHU216HW,2013-05-04 10:31:00,
2013-05-04 06:36:00,40.0,32.9,30.00,NW,315,0.0,1.1,76,0.00,,,0.00,WUHU216HW,2013-05-04 10:36:00,
2013-05-04 06:40:00,40.1,33.1,30.00,South,180,0.4,2.5,76,0.00,,,0.00,WUHU216HW,2013-05-04 10:40:00,
2013-05-04 06:45:00,40.1,32.8,30.00,WNW,293,0.9,2.5,75,0.00,,,0.00,WUHU216HW,2013-05-04 10:45:00,
2013-05-04 06:50:00,40.5,33.1,29.99,WNW,293,0.0,1.1,75,0.00,,,0.00,WUHU216HW,2013-05-04 10:50:00,
2013-05-04 06:55:00,40.5,33.1,29.99,ESE,113,0.4,0.9,75,0.00,,,0.00,WUHU216HW,2013-05-04 10:55:00,
2013-05-04 07:00:00,40.5,33.1,30.00,NW,315,0.7,1.8,75,0.00,,,0.00,WUHU216HW,2013-05-04 11:00:00,
2013-05-04 07:05:00,40.3,32.9,29.99,NW,315,0.4,1.8,75,0.00,,,0.00,WUHU216HW,2013-05-04 11:05:00,
2013-05-04 07:10:00,40.1,32.8,29.99,NW,315,0.4,1.3,75,0.00,,,0.00,WUHU216HW,2013-05-04 11:10:00,
2013-05-04 07:15:00,40.1,32.8,29.99,West,270,0.4,1.1,75,0.00,,,0.00,WUHU216HW,2013-05-04 11:15:00,
2013-05-04 07:20:00,40.5,33.1,29.99,West,270,0.0,1.1,75,0.00,,,0.00,WUHU216HW,2013-05-04 11:20:00,
2013-05-04 07:25:00,40.7,33.7,30.00,West,270,0.4,0.9,76,0.00,,,0.00,WUHU216HW,2013-05-04 11:25:00,
2013-05-04 07:30:00,41.0,33.7,30.00,West,270,0.0,0.9,75,0.00,,,0.00,WUHU216HW,2013-05-04 11:30:00,
2013-05-04 07:35:00,41.4,34.0,29.99,WNW,293,0.0,0.9,75,0.00,,,0.00,WUHU216HW,2013-05-04 11:35:00,
2013-05-04 07:40:00,41.4,34.4,29.99,WNW,293,0.4,1.8,76,0.00,,,0.00,WUHU216HW,2013-05-04 11:40:00,
2013-05-04 07:46:00,41.4,34.7,29.99,WNW,293,0.7,1.8,77,0.00,,,0.00,WUHU216HW,2013-05-04 11:46:00,
2013-05-04 07:51:00,41.4,34.4,30.00,WNW,293,0.0,1.1,76,0.00,,,0.00,WUHU216HW,2013-05-04 11:51:00,
2013-05-04 07:56:00,41.4,34.4,30.00,WNW,293,0.2,0.9,76,0.00,,,0.00,WUHU216HW,2013-05-04 11:56:00,
2013-05-04 08:01:00,41.6,34.6,30.01,WNW,293,0.0,0.9,76,0.00,,,0.00,WUHU216HW,2013-05-04 12:01:00,
2013-05-04 08:06:00,41.9,34.9,30.00,WNW,293,0.0,1.3,76,0.00,,,0.00,WUHU216HW,2013-05-04 12:06:00,
2013-05-04 08:11:00,42.3,34.9,30.00,WNW,293,0.4,1.3,75,0.00,,,0.00,WUHU216HW,2013-05-04 12:11:00,
2013-05-04 08:16:00,42.8,35.8,30.01,WNW,293,0.4,1.1,76,0.00,,,0.00,WUHU216HW,2013-05-04 12:16:00,
2013-05-04 08:21:00,42.8,35.5,30.01,WNW,293,0.0,0.7,75,0.00,,,0.00,WUHU216HW,2013-05-04 12:21:00,
2013-05-04 08:26:00,43.4,36.0,30.00,WNW,293,0.0,0.7,75,0.00,,,0.00,WUHU216HW,2013-05-04 12:26:00,
2013-05-04 08:31:00,44.1,36.6,30.00,WNW,293,0.4,0.7,75,0.00,,,0.00,WUHU216HW,2013-05-04 12:31:00,
2013-05-04 08:36:00,44.8,37.0,30.00,WSW,248,1.3,1.8,74,0.00,,,0.00,WUHU216HW,2013-05-04 12:36:00,
2013-05-04 08:41:00,45.7,37.3,30.00,West,270,0.0,1.8,72,0.00,,,0.00,WUHU216HW,2013-05-04 12:41:00,
2013-05-04 08:46:00,46.4,37.6,29.99,NW,315,1.1,1.8,71,0.00,,,0.00,WUHU216HW,2013-05-04 12:46:00,
2013-05-04 08:51:00,47.2,38.3,29.99,West,270,1.3,2.0,71,0.00,,,0.00,WUHU216HW,2013-05-04 12:51:00,
2013-05-04 08:56:00,48.2,38.2,29.99,NW,315,1.1,3.1,68,0.00,,,0.00,WUHU216HW,2013-05-04 12:56:00,
2013-05-04 09:01:00,48.8,37.9,29.99,NW,315,0.9,3.1,66,0.00,,,0.00,WUHU216HW,2013-05-04 13:01:00,
2013-05-04 09:03:00,49.0,38.4,29.99,WNW,293,1.1,2.5,67,0.00,,,0.00,WUHU216HW,2013-05-04 13:03:00,
2013-05-04 09:08:00,49.3,38.0,29.99,SSW,203,1.1,2.5,65,0.00,,,0.00,WUHU216HW,2013-05-04 13:08:00,
2013-05-04 09:13:00,49.9,38.5,29.99,NW,315,2.0,2.5,65,0.00,,,0.00,WUHU216HW,2013-05-04 13:13:00,
2013-05-04 09:18:00,50.4,38.6,29.99,NW,315,0.9,3.4,64,0.00,,,0.00,WUHU216HW,2013-05-04 13:18:00,
2013-05-04 09:23:00,50.8,38.6,29.99,NW,315,2.7,3.4,63,0.00,,,0.00,WUHU216HW,2013-05-04 13:23:00,
2013-05-04 09:28:00,51.1,39.3,29.99,WSW,248,0.9,3.1,64,0.00,,,0.00,WUHU216HW,2013-05-04 13:28:00,
2013-05-04 09:33:00,52.2,40.3,29.99,West,270,0.0,2.7,64,0.00,,,0.00,WUHU216HW,2013-05-04 13:33:00,
2013-05-04 09:38:00,53.1,40.4,29.98,SSE,158,0.4,1.8,62,0.00,,,0.00,WUHU216HW,2013-05-04 13:38:00,
2013-05-04 09:43:00,52.9,40.2,29.98,WNW,293,1.6,1.8,62,0.00,,,0.00,WUHU216HW,2013-05-04 13:43:00,
2013-05-04 09:48:00,53.3,40.6,29.98,NNW,338,3.1,3.1,62,0.00,,,0.00,WUHU216HW,2013-05-04 13:48:00,
2013-05-04 09:53:00,53.6,41.0,29.98,NNE,23,0.9,3.1,62,0.00,,,0.00,WUHU216HW,2013-05-04 13:53:00,
2013-05-04 09:58:00,54.5,41.8,29.98,WSW,248,1.1,3.1,62,0.00,,,0.00,WUHU216HW,2013-05-04 13:58:00,
2013-05-04 10:03:00,56.5,41.4,29.98,SSE,158,1.3,1.8,57,0.00,,,0.00,WUHU216HW,2013-05-04 14:03:00,
2013-05-04 10:08:00,57.1,41.9,29.98,WSW,248,1.1,1.3,57,0.00,,,0.00,WUHU216HW,2013-05-04 14:08:00,
2013-05-04 10:13:00,57.2,42.1,29.98,SE,135,0.7,2.5,57,0.00,,,0.00,WUHU216HW,2013-05-04 14:13:00,
2013-05-04 10:18:00,57.4,42.3,29.98,South,180,0.4,2.7,57,0.00,,,0.00,WUHU216HW,2013-05-04 14:18:00,
2013-05-04 10:23:00,57.2,41.2,29.98,South,180,1.1,2.7,55,0.00,,,0.00,WUHU216HW,2013-05-04 14:23:00,
2013-05-04 10:28:00,57.4,41.9,29.98,ENE,68,0.4,2.5,56,0.00,,,0.00,WUHU216HW,2013-05-04 14:28:00,
2013-05-04 10:33:00,58.5,43.3,29.98,SE,135,1.8,3.6,57,0.00,,,0.00,WUHU216HW,2013-05-04 14:33:00,
2013-05-04 10:38:00,59.4,42.8,29.97,South,180,2.9,3.6,54,0.00,,,0.00,WUHU216HW,2013-05-04 14:38:00,
2013-05-04 10:43:00,59.0,42.8,29.97,SW,225,2.0,3.8,55,0.00,,,0.00,WUHU216HW,2013-05-04 14:43:00,
2013-05-04 10:48:00,58.7,41.1,29.97,NNW,338,0.4,3.8,52,0.00,,,0.00,WUHU216HW,2013-05-04 14:48:00,
2013-05-04 10:53:00,59.0,42.8,29.97,WSW,248,1.6,3.1,55,0.00,,,0.00,WUHU216HW,2013-05-04 14:53:00,
2013-05-04 10:58:00,60.1,42.9,29.97,ENE,68,2.5,2.5,53,0.00,,,0.00,WUHU216HW,2013-05-04 14:58:00,
2013-05-04 11:03:00,60.7,43.4,29.97,ESE,113,2.0,6.3,53,0.00,,,0.00,WUHU216HW,2013-05-04 15:03:00,
2013-05-04 11:08:00,61.4,43.6,29.96,WSW,248,2.0,6.3,52,0.00,,,0.00,WUHU216HW,2013-05-04 15:08:00,
2013-05-04 11:13:00,61.9,42.5,29.97,South,180,2.0,4.9,49,0.00,,,0.00,WUHU216HW,2013-05-04 15:13:00,
2013-05-04 11:18:00,62.3,42.3,29.97,East,90,0.9,4.9,48,0.00,,,0.00,WUHU216HW,2013-05-04 15:18:00,
2013-05-04 11:23:00,63.0,41.8,29.96,NW,315,1.6,6.5,46,0.00,,,0.00,WUHU216HW,2013-05-04 15:23:00,
2013-05-04 11:28:00,63.4,41.0,29.97,SE,135,1.8,6.5,44,0.00,,,0.00,WUHU216HW,2013-05-04 15:28:00,
2013-05-04 11:33:00,63.7,40.7,29.96,ENE,68,1.8,6.3,43,0.00,,,0.00,WUHU216HW,2013-05-04 15:33:00,
2013-05-04 11:38:00,64.3,40.6,29.96,WSW,248,2.5,3.8,42,0.00,,,0.00,WUHU216HW,2013-05-04 15:38:00,
2013-05-04 11:43:00,64.8,40.0,29.96,ESE,113,1.1,4.7,40,0.00,,,0.00,WUHU216HW,2013-05-04 15:43:00,
2013-05-04 11:48:00,64.8,40.5,29.96,NW,315,2.5,4.7,41,0.00,,,0.00,WUHU216HW,2013-05-04 15:48:00,
2013-05-04 11:53:00,65.3,41.0,29.96,WSW,248,1.8,3.4,41,0.00,,,0.00,WUHU216HW,2013-05-04 15:53:00,
2013-05-04 11:58:00,64.6,38.4,29.96,WSW,248,2.5,4.0,38,0.00,,,0.00,WUHU216HW,2013-05-04 15:58:00,
2013-05-04 12:03:00,64.1,36.4,29.96,WSW,248,1.1,4.0,36,0.00,,,0.00,WUHU216HW,2013-05-04 16:03:00,
2013-05-04 12:08:00,63.9,38.4,29.96,SE,135,2.0,3.6,39,0.00,,,0.00,WUHU216HW,2013-05-04 16:08:00,
2013-05-04 12:13:00,63.0,36.2,29.96,WSW,248,2.5,3.6,37,0.00,,,0.00,WUHU216HW,2013-05-04 16:13:00,
2013-05-04 12:18:00,62.6,37.3,29.96,NNW,338,0.7,3.6,39,0.00,,,0.00,WUHU216HW,2013-05-04 16:18:00,
2013-05-04 12:23:00,62.6,36.5,29.96,East,90,2.0,3.6,38,0.00,,,0.00,WUHU216HW,2013-05-04 16:23:00,
2013-05-04 12:28:00,62.5,37.8,29.96,West,270,0.9,4.3,40,0.00,,,0.00,WUHU216HW,2013-05-04 16:28:00,
2013-05-04 12:33:00,62.8,36.7,29.96,NW,315,2.0,4.3,38,0.00,,,0.00,WUHU216HW,2013-05-04 16:33:00,
2013-05-04 12:38:00,63.0,38.4,29.96,NNW,338,1.1,3.4,40,0.00,,,0.00,WUHU216HW,2013-05-04 16:38:00,
2013-05-04 12:43:00,63.4,38.6,29.96,SE,135,1.8,4.0,40,0.00,,,0.00,WUHU216HW,2013-05-04 16:43:00,
2013-05-04 12:48:00,63.9,39.2,29.96,SSE,158,1.8,4.0,40,0.00,,,0.00,WUHU216HW,2013-05-04 16:48:00,
2013-05-04 12:53:00,64.8,39.3,29.96,East,90,1.1,4.0,39,0.00,,,0.00,WUHU216HW,2013-05-04 16:53:00,
2013-05-04 12:58:00,65.0,38.6,29.96,NW,315,2.5,2.7,38,0.00,,,0.00,WUHU216HW,2013-05-04 16:58:00,
2013-05-04 13:03:00,64.8,35.7,29.96,NNW,338,2.5,3.6,34,0.00,,,0.00,WUHU216HW,2013-05-04 17:03:00,
2013-05-04 13:08:00,64.3,36.5,29.96,ESE,113,1.3,3.6,36,0.00,,,0.00,WUHU216HW,2013-05-04 17:08:00,
2013-05-04 13:13:00,64.3,38.0,29.95,SSE,158,1.8,2.9,38,0.00,,,0.00,WUHU216HW,2013-05-04 17:13:00,
2013-05-04 13:18:00,64.4,36.0,29.95,SE,135,3.4,3.4,35,0.00,,,0.00,WUHU216HW,2013-05-04 17:18:00,
2013-05-04 13:23:00,65.0,37.9,29.95,West,270,0.9,4.9,37,0.00,,,0.00,WUHU216HW,2013-05-04 17:23:00,
2013-05-04 13:28:00,65.3,38.3,29.95,East,90,0.7,4.9,37,0.00,,,0.00,WUHU216HW,2013-05-04 17:28:00,
2013-05-04 13:33:00,65.9,37.3,29.95,SSE,158,2.2,3.4,35,0.00,,,0.00,WUHU216HW,2013-05-04 17:33:00,
2013-05-04 13:38:00,65.5,34.8,29.95,NNW,338,2.0,3.8,32,0.00,,,0.00,WUHU216HW,2013-05-04 17:38:00,
2013-05-04 13:43:00,65.2,34.5,29.95,NNE,23,0.9,3.8,32,0.00,,,0.00,WUHU216HW,2013-05-04 17:43:00,
2013-05-04 13:48:00,65.3,33.9,29.95,ESE,113,1.1,4.0,31,0.00,,,0.00,WUHU216HW,2013-05-04 17:48:00,
2013-05-04 13:53:00,65.5,34.1,29.95,SSE,158,1.6,4.3,31,0.00,,,0.00,WUHU216HW,2013-05-04 17:53:00,
2013-05-04 13:58:00,65.3,33.9,29.94,WSW,248,1.3,6.3,31,0.00,,,0.00,WUHU216HW,2013-05-04 17:58:00,
2013-05-04 14:03:00,65.9,35.8,29.94,WSW,248,0.9,6.3,33,0.00,,,0.00,WUHU216HW,2013-05-04 18:03:00,
2013-05-04 14:08:00,65.9,34.4,29.94,NW,315,1.8,4.7,31,0.00,,,0.00,WUHU216HW,2013-05-04 18:08:00,
2013-05-04 14:13:00,65.7,35.7,29.94,West,270,1.1,4.7,33,0.00,,,0.00,WUHU216HW,2013-05-04 18:13:00,
2013-05-04 14:18:00,66.1,36.7,29.94,SW,225,1.6,2.2,34,0.00,,,0.00,WUHU216HW,2013-05-04 18:18:00,
2013-05-04 14:23:00,65.9,33.7,29.94,East,90,2.0,2.2,30,0.00,,,0.00,WUHU216HW,2013-05-04 18:23:00,
2013-05-04 14:28:00,65.5,34.1,29.95,South,180,1.1,3.4,31,0.00,,,0.00,WUHU216HW,2013-05-04 18:28:00,
2013-05-04 14:33:00,65.5,31.4,29.95,ESE,113,1.1,3.4,28,0.00,,,0.00,WUHU216HW,2013-05-04 18:33:00,
2013-05-04 14:38:00,65.2,33.0,29.95,ESE,113,0.4,3.4,30,0.00,,,0.00,WUHU216HW,2013-05-04 18:38:00,
2013-05-04 14:43:00,64.8,32.8,29.95,WSW,248,2.5,3.4,30,0.00,,,0.00,WUHU216HW,2013-05-04 18:43:00,
2013-05-04 14:48:00,64.8,32.8,29.95,SSW,203,0.7,3.4,30,0.00,,,0.00,WUHU216HW,2013-05-04 18:48:00,
2013-05-04 14:53:00,65.9,35.8,29.95,NW,315,4.5,4.5,33,0.00,,,0.00,WUHU216HW,2013-05-04 18:53:00,
2013-05-04 14:58:00,67.0,38.3,29.94,SW,225,1.8,4.5,35,0.00,,,0.00,WUHU216HW,2013-05-04 18:58:00,
2013-05-04 15:03:00,68.0,37.7,29.94,East,90,2.0,4.5,33,0.00,,,0.00,WUHU216HW,2013-05-04 19:03:00,
2013-05-04 15:08:00,67.0,36.1,29.94,WSW,248,2.9,4.5,32,0.00,,,0.00,WUHU216HW,2013-05-04 19:08:00,
2013-05-04 15:13:00,67.5,38.7,29.94,South,180,3.4,4.0,35,0.00,,,0.00,WUHU216HW,2013-05-04 19:13:00,
2013-05-04 15:18:00,68.0,39.9,29.94,WSW,248,2.7,4.0,36,0.00,,,0.00,WUHU216HW,2013-05-04 19:18:00,
2013-05-04 15:23:00,68.2,38.6,29.93,East,90,1.1,4.0,34,0.00,,,0.00,WUHU216HW,2013-05-04 19:23:00,
2013-05-04 15:28:00,67.3,37.8,29.94,West,270,0.7,3.6,34,0.00,,,0.00,WUHU216HW,2013-05-04 19:28:00,
2013-05-04 15:33:00,67.0,37.5,29.93,East,90,0.9,3.6,34,0.00,,,0.00,WUHU216HW,2013-05-04 19:33:00,
2013-05-04 15:38:00,66.6,38.6,29.93,NE,45,1.6,4.3,36,0.00,,,0.00,WUHU216HW,2013-05-04 19:38:00,
2013-05-04 15:43:00,66.1,38.2,29.93,ENE,68,1.8,4.3,36,0.00,,,0.00,WUHU216HW,2013-05-04 19:43:00,
2013-05-04 15:48:00,66.2,37.6,29.93,NW,315,1.3,4.0,35,0.00,,,0.00,WUHU216HW,2013-05-04 19:48:00,
2013-05-04 15:53:00,65.9,37.3,29.93,ESE,113,1.6,3.6,35,0.00,,,0.00,WUHU216HW,2013-05-04 19:53:00,
2013-05-04 15:58:00,66.2,39.1,29.93,NNE,23,3.1,3.4,37,0.00,,,0.00,WUHU216HW,2013-05-04 19:58:00,
2013-05-04 16:03:00,66.6,40.2,29.93,SSW,203,2.2,3.1,38,0.00,,,0.00,WUHU216HW,2013-05-04 20:03:00,
2013-05-04 16:08:00,67.3,40.0,29.93,SSE,158,6.3,6.3,37,0.00,,,0.00,WUHU216HW,2013-05-04 20:08:00,
2013-05-04 16:13:00,67.3,40.8,29.93,SW,225,2.2,6.3,38,0.00,,,0.00,WUHU216HW,2013-05-04 20:13:00,
2013-05-04 16:18:00,67.3,40.0,29.93,ESE,113,1.8,4.5,37,0.00,,,0.00,WUHU216HW,2013-05-04 20:18:00,
2013-05-04 16:23:00,66.4,39.3,29.92,SW,225,1.6,4.7,37,0.00,,,0.00,WUHU216HW,2013-05-04 20:23:00,
2013-05-04 16:28:00,66.1,38.9,29.92,SSW,203,2.5,4.7,37,0.00,,,0.00,WUHU216HW,2013-05-04 20:28:00,
2013-05-04 16:33:00,65.9,39.4,29.92,SE,135,1.6,4.5,38,0.00,,,0.00,WUHU216HW,2013-05-04 20:33:00,
2013-05-04 16:38:00,66.2,40.5,29.92,SSW,203,1.8,6.0,39,0.00,,,0.00,WUHU216HW,2013-05-04 20:38:00,
2013-05-04 16:43:00,66.8,40.2,29.92,SSE,158,1.8,7.2,38,0.00,,,0.00,WUHU216HW,2013-05-04 20:43:00,
2013-05-04 16:48:00,66.1,40.3,29.92,NNE,23,2.5,7.2,39,0.00,,,0.00,WUHU216HW,2013-05-04 20:48:00,
2013-05-04 16:53:00,65.2,40.2,29.92,SE,135,4.0,4.9,40,0.00,,,0.00,WUHU216HW,2013-05-04 20:53:00,
2013-05-04 16:58:00,65.0,41.2,29.91,NE,45,1.8,4.9,42,0.00,,,0.00,WUHU216HW,2013-05-04 20:58:00,
2013-05-04 17:03:00,65.0,40.7,29.91,South,180,1.3,6.9,41,0.00,,,0.00,WUHU216HW,2013-05-04 21:03:00,
2013-05-04 17:09:00,65.3,41.0,29.91,ESE,113,2.2,6.9,41,0.00,,,0.00,WUHU216HW,2013-05-04 21:09:00,
2013-05-04 17:14:00,65.3,41.0,29.91,ENE,68,1.3,6.0,41,0.00,,,0.00,WUHU216HW,2013-05-04 21:14:00,
2013-05-04 17:19:00,65.9,42.1,29.91,ESE,113,0.9,6.0,42,0.00,,,0.00,WUHU216HW,2013-05-04 21:19:00,
2013-05-04 17:24:00,66.2,41.2,29.91,SW,225,0.9,5.4,40,0.00,,,0.00,WUHU216HW,2013-05-04 21:24:00,
2013-05-04 17:29:00,66.4,41.4,29.91,SSW,203,2.5,2.9,40,0.00,,,0.00,WUHU216HW,2013-05-04 21:29:00,
2013-05-04 17:34:00,66.1,41.7,29.91,ESE,113,2.2,4.7,41,0.00,,,0.00,WUHU216HW,2013-05-04 21:34:00,
2013-05-04 17:39:00,66.1,42.2,29.91,WNW,293,2.2,4.7,42,0.00,,,0.00,WUHU216HW,2013-05-04 21:39:00,
2013-05-04 17:44:00,65.3,41.0,29.91,ESE,113,1.3,4.5,41,0.00,,,0.00,WUHU216HW,2013-05-04 21:44:00,
2013-05-04 17:49:00,64.8,41.7,29.91,NW,315,0.2,4.5,43,0.00,,,0.00,WUHU216HW,2013-05-04 21:49:00,
2013-05-04 17:54:00,64.3,41.8,29.91,East,90,1.1,3.6,44,0.00,,,0.00,WUHU216HW,2013-05-04 21:54:00,
2013-05-04 17:59:00,63.9,41.4,29.91,NNE,23,1.1,4.5,44,0.00,,,0.00,WUHU216HW,2013-05-04 21:59:00,
2013-05-04 18:04:00,63.7,41.9,29.91,ESE,113,0.9,4.9,45,0.00,,,0.00,WUHU216HW,2013-05-04 22:04:00,
2013-05-04 18:09:00,63.7,43.0,29.91,South,180,0.9,4.9,47,0.00,,,0.00,WUHU216HW,2013-05-04 22:09:00,
2013-05-04 18:14:00,63.5,42.9,29.91,South,180,1.6,2.7,47,0.00,,,0.00,WUHU216HW,2013-05-04 22:14:00,
2013-05-04 18:19:00,63.4,42.7,29.92,South,180,2.5,4.0,47,0.00,,,0.00,WUHU216HW,2013-05-04 22:19:00,
2013-05-04 18:24:00,63.0,42.3,29.92,ENE,68,1.1,4.0,47,0.00,,,0.00,WUHU216HW,2013-05-04 22:24:00,
2013-05-04 18:29:00,62.3,42.3,29.92,ENE,68,2.7,2.7,48,0.00,,,0.00,WUHU216HW,2013-05-04 22:29:00,
2013-05-04 18:34:00,61.7,42.4,29.92,SW,225,1.8,2.7,49,0.00,,,0.00,WUHU216HW,2013-05-04 22:34:00,
2013-05-04 18:39:00,61.6,42.2,29.92,SSW,203,0.7,2.7,49,0.00,,,0.00,WUHU216HW,2013-05-04 22:39:00,
2013-05-04 18:44:00,61.2,42.5,29.92,SSE,158,1.1,3.1,50,0.00,,,0.00,WUHU216HW,2013-05-04 22:44:00,
2013-05-04 18:49:00,61.0,42.8,29.92,WNW,293,1.3,3.1,51,0.00,,,0.00,WUHU216HW,2013-05-04 22:49:00,
2013-05-04 18:54:00,60.8,42.6,29.92,WSW,248,1.1,2.7,51,0.00,,,0.00,WUHU216HW,2013-05-04 22:54:00,
2013-05-04 18:59:00,60.1,42.4,29.92,ENE,68,1.1,3.4,52,0.00,,,0.00,WUHU216HW,2013-05-04 22:59:00,
2013-05-04 19:04:00,59.9,42.8,29.93,West,270,1.8,3.4,53,0.00,,,0.00,WUHU216HW,2013-05-04 23:04:00,
2013-05-04 19:09:00,59.8,42.6,29.93,West,270,0.0,1.8,53,0.00,,,0.00,WUHU216HW,2013-05-04 23:09:00,
2013-05-04 19:14:00,59.6,42.4,29.93,SW,225,0.7,1.8,53,0.00,,,0.00,WUHU216HW,2013-05-04 23:14:00,
2013-05-04 19:19:00,59.4,42.8,29.93,SE,135,0.4,1.8,54,0.00,,,0.00,WUHU216HW,2013-05-04 23:19:00,
2013-05-04 19:24:00,58.9,42.7,29.93,ENE,68,2.5,4.0,55,0.00,,,0.00,WUHU216HW,2013-05-04 23:24:00,
2013-05-04 19:29:00,58.7,42.5,29.94,ENE,68,0.9,4.0,55,0.00,,,0.00,WUHU216HW,2013-05-04 23:29:00,
2013-05-04 19:34:00,58.3,42.7,29.94,NE,45,0.4,2.5,56,0.00,,,0.00,WUHU216HW,2013-05-04 23:34:00,
2013-05-04 19:39:00,58.1,42.5,29.94,SE,135,0.0,1.8,56,0.00,,,0.00,WUHU216HW,2013-05-04 23:39:00,
2013-05-04 19:44:00,58.0,42.3,29.94,NNE,23,0.4,1.8,56,0.00,,,0.00,WUHU216HW,2013-05-04 23:44:00,
2013-05-04 19:49:00,57.6,42.5,29.94,NNE,23,1.8,2.2,57,0.00,,,0.00,WUHU216HW,2013-05-04 23:49:00,
2013-05-04 19:54:00,57.4,41.9,29.94,NE,45,1.1,2.5,56,0.00,,,0.00,WUHU216HW,2013-05-04 23:54:00,
2013-05-04 19:59:00,57.2,41.7,29.94,NNE,23,0.7,2.5,56,0.00,,,0.00,WUHU216HW,2013-05-04 23:59:00,
2013-05-04 20:04:00,57.1,41.9,29.94,NNE,23,0.7,2.2,57,0.00,,,0.00,WUHU216HW,2013-05-05 00:04:00,
2013-05-04 20:09:00,56.7,42.1,29.94,ESE,113,0.2,5.1,58,0.00,,,0.00,WUHU216HW,2013-05-05 00:09:00,
2013-05-04 20:14:00,56.5,42.0,29.94,SE,135,2.5,5.1,58,0.00,,,0.00,WUHU216HW,2013-05-05 00:14:00,
2013-05-04 20:19:00,56.3,42.2,29.94,NW,315,1.1,2.5,59,0.00,,,0.00,WUHU216HW,2013-05-05 00:19:00,
2013-05-04 20:24:00,56.0,41.9,29.94,SSE,158,0.4,3.1,59,0.00,,,0.00,WUHU216HW,2013-05-05 00:24:00,
2013-05-04 20:29:00,55.8,42.1,29.94,SE,135,2.2,3.1,60,0.00,,,0.00,WUHU216HW,2013-05-05 00:29:00,
2013-05-04 20:34:00,55.8,42.1,29.94,ESE,113,0.9,5.6,60,0.00,,,0.00,WUHU216HW,2013-05-05 00:34:00,
2013-05-04 20:39:00,55.6,41.9,29.94,East,90,0.4,5.6,60,0.00,,,0.00,WUHU216HW,2013-05-05 00:39:00,
2013-05-04 20:44:00,55.4,42.2,29.94,NNE,23,1.6,3.1,61,0.00,,,0.00,WUHU216HW,2013-05-05 00:44:00,
2013-05-04 20:49:00,55.3,42.0,29.94,NNE,23,0.9,3.1,61,0.00,,,0.00,WUHU216HW,2013-05-05 00:49:00,
2013-05-04 20:54:00,55.1,41.9,29.95,North,0,1.1,5.4,61,0.00,,,0.00,WUHU216HW,2013-05-05 00:54:00,
2013-05-04 20:59:00,55.1,42.7,29.95,ENE,68,0.7,5.4,63,0.00,,,0.00,WUHU216HW,2013-05-05 00:59:00,
2013-05-04 21:04:00,54.9,42.5,29.95,NNW,338,1.3,3.4,63,0.00,,,0.00,WUHU216HW,2013-05-05 01:04:00,
2013-05-04 21:09:00,54.7,42.3,29.95,SE,135,1.1,3.4,63,0.00,,,0.00,WUHU216HW,2013-05-05 01:09:00,
2013-05-04 21:14:00,54.7,42.3,29.95,WSW,248,1.1,4.7,63,0.00,,,0.00,WUHU216HW,2013-05-05 01:14:00,
2013-05-04 21:19:00,54.7,42.3,29.95,East,90,1.6,4.7,63,0.00,,,0.00,WUHU216HW,2013-05-05 01:19:00,
2013-05-04 21:24:00,54.5,42.6,29.95,NW,315,1.1,4.0,64,0.00,,,0.00,WUHU216HW,2013-05-05 01:24:00,
2013-05-04 21:29:00,54.4,42.0,29.95,ENE,68,1.3,2.9,63,0.00,,,0.00,WUHU216HW,2013-05-05 01:29:00,
2013-05-04 21:34:00,54.4,42.0,29.96,SSW,203,1.3,2.0,63,0.00,,,0.00,WUHU216HW,2013-05-05 01:34:00,
2013-05-04 21:39:00,54.4,42.4,29.96,NE,45,0.4,2.0,64,0.00,,,0.00,WUHU216HW,2013-05-05 01:39:00,
2013-05-04 21:44:00,54.4,42.4,29.96,East,90,1.8,1.8,64,0.00,,,0.00,WUHU216HW,2013-05-05 01:44:00,
2013-05-04 21:49:00,54.2,42.2,29.96,NNW,338,0.2,1.8,64,0.00,,,0.00,WUHU216HW,2013-05-05 01:49:00,
2013-05-04 21:54:00,54.2,42.2,29.96,WSW,248,0.7,2.2,64,0.00,,,0.00,WUHU216HW,2013-05-05 01:54:00,
2013-05-04 21:59:00,54.0,42.0,29.96,WNW,293,0.9,3.6,64,0.00,,,0.00,WUHU216HW,2013-05-05 01:59:00,
2013-05-04 22:04:00,54.0,42.0,29.96,SSW,203,0.9,3.6,64,0.00,,,0.00,WUHU216HW,2013-05-05 02:04:00,
2013-05-04 22:09:00,53.8,41.9,29.97,NE,45,1.8,4.0,64,0.00,,,0.00,WUHU216HW,2013-05-05 02:09:00,
2013-05-04 22:14:00,53.6,41.8,29.96,ENE,68,0.4,4.0,64,0.00,,,0.00,WUHU216HW,2013-05-05 02:14:00,
2013-05-04 22:19:00,53.6,41.8,29.96,SW,225,0.0,2.0,64,0.00,,,0.00,WUHU216HW,2013-05-05 02:19:00,
2013-05-04 22:24:00,53.5,41.9,29.96,SSW,203,0.2,4.0,65,0.00,,,0.00,WUHU216HW,2013-05-05 02:24:00,
2013-05-04 22:29:00,53.3,41.4,29.96,North,0,1.3,4.0,64,0.00,,,0.00,WUHU216HW,2013-05-05 02:29:00,
2013-05-04 22:34:00,53.3,41.8,29.96,North,0,1.8,2.9,65,0.00,,,0.00,WUHU216HW,2013-05-05 02:34:00,
2013-05-04 22:39:00,53.1,41.6,29.96,NNE,23,2.0,3.4,65,0.00,,,0.00,WUHU216HW,2013-05-05 02:39:00,
2013-05-04 22:44:00,53.1,41.6,29.96,NNW,338,0.4,3.4,65,0.00,,,0.00,WUHU216HW,2013-05-05 02:44:00,
2013-05-04 22:49:00,53.1,41.2,29.96,SW,225,0.7,1.8,64,0.00,,,0.00,WUHU216HW,2013-05-05 02:49:00,
2013-05-04 22:54:00,53.1,41.6,29.96,WSW,248,1.1,2.2,65,0.00,,,0.00,WUHU216HW,2013-05-05 02:54:00,
2013-05-04 22:59:00,52.9,42.2,29.95,SSW,203,0.4,2.2,67,0.00,,,0.00,WUHU216HW,2013-05-05 02:59:00,
2013-05-04 23:04:00,52.9,42.2,29.95,SE,135,1.6,2.5,67,0.00,,,0.00,WUHU216HW,2013-05-05 03:04:00,
2013-05-04 23:09:00,52.7,41.7,29.95,East,90,0.7,2.5,66,0.00,,,0.00,WUHU216HW,2013-05-05 03:09:00,
2013-05-04 23:14:00,52.6,42.3,29.95,SSW,203,0.7,6.7,68,0.00,,,0.00,WUHU216HW,2013-05-05 03:14:00,
2013-05-04 23:19:00,52.2,41.6,29.95,ESE,113,0.7,6.7,67,0.00,,,0.00,WUHU216HW,2013-05-05 03:19:00,
2013-05-04 23:24:00,51.8,41.2,29.95,NNE,23,1.8,3.6,67,0.00,,,0.00,WUHU216HW,2013-05-05 03:24:00,
2013-05-04 23:29:00,51.7,41.5,29.95,ENE,68,0.4,3.6,68,0.00,,,0.00,WUHU216HW,2013-05-05 03:29:00,
2013-05-04 23:34:00,51.5,41.3,29.95,ESE,113,1.6,3.1,68,0.00,,,0.00,WUHU216HW,2013-05-05 03:34:00,
2013-05-04 23:39:00,51.3,41.1,29.95,South,180,0.9,2.9,68,0.00,,,0.00,WUHU216HW,2013-05-05 03:39:00,
2013-05-04 23:44:00,51.1,41.0,29.95,NW,315,0.4,2.0,68,0.00,,,0.00,WUHU216HW,2013-05-05 03:44:00,
2013-05-04 23:49:00,50.9,40.8,29.95,SSE,158,0.9,2.0,68,0.00,,,0.00,WUHU216HW,2013-05-05 03:49:00,
2013-05-04 23:54:00,50.8,41.1,29.95,ENE,68,1.3,4.9,69,0.00,,,0.00,WUHU216HW,2013-05-05 03:54:00,
2013-05-04 23:59:00,50.4,40.2,29.95,SSW,203,0.4,4.9,68,0.00,,,0.00,WUHU216HW,2013-05-05 03:59:00,